Flag for Japan Weather past 2 weeks in Hiroshima, Japan

Now
49 °F

Mostly cloudy.


Feels Like: 46 °F
Forecast: 35 / 46 °F
Wind: 6 mph from Northeast

Location: Iwakuni Marine Corps Air Station

Current Time: Feb 28, 2015 at 11:02:08 PM

Latest Report: Feb 28, 2015 at 9:55 PM


Visibility: N/A

Pressure: 30.19 "Hg

Humidity: 57%

Dew point: 34 °F

Location of HiroshimaLocation

Historic Weather in Hiroshima — Graph

°F

Hiroshima temperature yesterday

Maximum temperature yesterday: 48 °F (at 11:55 AM)
Minimum temperature yesterday: 39 °F (at 11:55 PM)
Average temperature yesterday: 43 °F

Past Weeks' High & Low Weather Summary

 TemperatureHumidityPressure
High56 °F (Feb 25, 1:55 PM)97% (Feb 22, 4:55 AM)30.37 "Hg (Feb 22, 4:55 AM)
Low30 °F (Feb 21, 7:55 AM)24% (Feb 14, 5:55 PM)29.75 "Hg (Feb 19, 3:55 AM)
Average46 °F71%30.10 "Hg
* Reported Feb 13 9:55 PM — Feb 28 9:55 PM, Hiroshima, Weather by CustomWeather, © 2015

Note: Actual official high and low records may vary slightly from our data, if they occured in-between our weather recording intervals... More about our weather records

Advertising

Hiroshima weather history for previous 24 hours

 ConditionsComfort  
Time TempWeatherWind HumidityBarometerVisibility
9:55 PM
Sat, Feb 28
49 °FMostly cloudy.6 mph57%30.19 "HgN/A
8:55 PM50 °FMostly cloudy.7 mph54%30.20 "HgN/A
7:55 PM50 °FMostly cloudy.10 mph54%30.20 "HgN/A
6:55 PM50 °FOvercast.7 mph52%30.23 "HgN/A
5:55 PM50 °FMore clouds than sun.6 mph50%30.24 "HgN/A
4:55 PM51 °FMostly cloudy.7 mph48%30.23 "HgN/A
3:55 PM49 °FPartly sunny.3 mph46%30.23 "HgN/A
2:55 PM48 °FPartly sunny.3 mph46%30.25 "HgN/A
1:55 PM47 °FPartly sunny.5 mph48%30.26 "HgN/A
12:55 PM48 °FScattered clouds.5 mph50%30.30 "HgN/A
11:55 AM48 °FPassing clouds.6 mph50%30.35 "HgN/A
10:55 AM46 °FPassing clouds.9 mph51%30.37 "HgN/A
9:55 AM43 °FSunny.13 mph58%30.37 "HgN/A
8:55 AM43 °FSunny.16 mph57%30.37 "HgN/A
8:06 AM39 °FSunny.13 mph70%30.37 "HgN/A
7:55 AM40 °FSunny.13 mph68%30.37 "HgN/A
6:55 AM36 °FSunny.6 mph75%30.36 "HgN/A
5:55 AM37 °FPassing clouds.6 mph73%30.35 "HgN/A
4:55 AM39 °FPassing clouds.7 mph67%30.34 "HgN/A
3:55 AM40 °FPassing clouds.15 mph68%30.34 "HgN/A
2:55 AM39 °FPassing clouds.12 mph70%30.32 "HgN/A
1:55 AM40 °FPassing clouds.12 mph68%30.33 "HgN/A
12:55 AM38 °FPassing clouds.7 mph68%30.32 "HgN/A
11:55 PM
Fri, Feb 27
39 °FPassing clouds.3 mph65%30.32 "HgN/A
Weather by CustomWeather, © 2015

See weather overviewHow to use our weather pages